Prescott, AZ

7:45 PM MST on May 26, 2017 (GMT -0700)
Love

Weather History for KPRC - June, 2013

Change the Weather History Date:

Friday, June 14, 2013

  Actual Average Record
Temperature  
Mean Temperature 75 °F 70 °F  
Max Temperature 91 °F 86 °F 98 °F (1961)
Min Temperature 58 °F 54 °F 39 °F (2001)
Degree Days  
Heating Degree Days 0    
Month to date heating degree days 0  
Since 1 July heating degree days 3911  
Cooling Degree Days 10    
Month to date cooling degree days 146  
Year to date cooling degree days 189  
Growing Degree Days 24 (Base 50)    
Moisture  
Dew Point 31 °F    
Average Humidity 22    
Maximum Humidity 44    
Minimum Humidity 10    
Precipitation  
Precipitation 0.00 in 0.01 in 0.22 in (1972)
Month to date precipitation 0.00 0.12  
Year to date precipitation 2.51 4.66  
Sea Level Pressure  
Sea Level Pressure 29.79 in    
Wind  
Wind Speed 9 mph (SSW)    
Max Wind Speed 20 mph    
Max Gust Speed 28 mph    
Visibility 10 miles    
Events      
T = Trace of Precipitation, MM = Missing Value Source: NWS Daily Summary

Daily Weather History Graph

Daily Weather History Graph

Search for Another Location

Airport or City:

Trip Planner

Search our weather history database for the weather conditions in past years. The results will help you decide how hot, cold, wet, or windy it might be!

Date:

Astronomy

Jun. 14, 2013 Rise Set
Actual Time 5:16 AM MST 7:44 PM MST
Civil Twilight 4:46 AM MST 8:13 PM MST
Nautical Twilight 4:10 AM MST 8:49 PM MST
Astronomical Twilight 3:30 AM MST 9:30 PM MST
Moon 10:43 AM MST (6/14) 11:35 PM MST (6/14)
Length of Visible Light 15h 26m
Length of Day
14h 27m
Waxing Crescent, 31% of the Moon is Illuminated
Jun 14
Waxing Crescent
Jun 16
First Quarter
Jun 23
Full
Jun 29
Last Quarter
Jul 8
New

Hourly Weather History & Observations

Time (MST) Temp. Dew Point Humidity Pressure Visibility Wind Dir Wind Speed Gust Speed Precip Events Conditions
12:53 AM 66.9 °F 36.0 °F 32% 29.80 in 10.0 mi SSW 6.9 mph - N/A   Clear
1:53 AM 64.9 °F 37.0 °F 36% 29.80 in 10.0 mi SSW 6.9 mph - N/A   Clear
2:53 AM 62.1 °F 37.9 °F 41% 29.80 in 10.0 mi SSW 8.1 mph - N/A   Clear
3:53 AM 59.0 °F 37.9 °F 46% 29.81 in 10.0 mi SSW 6.9 mph - N/A   Clear
4:53 AM 59.0 °F 36.0 °F 42% 29.81 in 10.0 mi South 8.1 mph - N/A   Clear
5:53 AM 61.0 °F 36.0 °F 39% 29.83 in 10.0 mi SSW 8.1 mph - N/A   Clear
6:53 AM 64.9 °F 34.0 °F 32% 29.83 in 10.0 mi Calm Calm - N/A   Clear
7:53 AM 73.0 °F 36.0 °F 26% 29.83 in 10.0 mi South 4.6 mph - N/A   Clear
8:53 AM 79.0 °F 27.0 °F 15% 29.83 in 10.0 mi SSW 9.2 mph - N/A   Clear
9:53 AM 82.9 °F 25.0 °F 12% 29.83 in 10.0 mi Variable 5.8 mph - N/A   Clear
10:53 AM 86.0 °F 27.0 °F 12% 29.82 in 10.0 mi South 10.4 mph - N/A   Clear
11:53 AM 88.0 °F 28.9 °F 12% 29.80 in 10.0 mi WSW 13.8 mph 20.7 mph N/A   Clear
12:53 PM 87.1 °F 27.0 °F 11% 29.80 in 10.0 mi SSW 12.7 mph 20.7 mph N/A   Scattered Clouds
1:53 PM 90.0 °F 27.0 °F 10% 29.78 in 10.0 mi SW 12.7 mph 23.0 mph N/A   Clear
2:53 PM 90.0 °F 26.1 °F 10% 29.78 in 10.0 mi SW 10.4 mph 20.7 mph N/A   Clear
3:53 PM 89.1 °F 28.9 °F 12% 29.77 in 10.0 mi WSW 9.2 mph 21.9 mph N/A   Clear
4:53 PM 88.0 °F 28.9 °F 12% 29.75 in 10.0 mi SW 13.8 mph 23.0 mph N/A   Clear
5:53 PM 87.1 °F 28.0 °F 12% 29.75 in 10.0 mi WSW 16.1 mph 25.3 mph N/A   Clear
6:53 PM 84.9 °F 28.9 °F 13% 29.75 in 10.0 mi WSW 13.8 mph - N/A   Partly Cloudy
7:53 PM 81.0 °F 30.0 °F 16% 29.75 in 10.0 mi SW 10.4 mph - N/A   Scattered Clouds
8:53 PM 77.0 °F 30.9 °F 19% 29.75 in 10.0 mi SW 8.1 mph - N/A   Clear
9:53 PM 75.0 °F 30.9 °F 20% 29.77 in 10.0 mi SSW 8.1 mph - N/A   Clear
10:53 PM 69.1 °F 34.0 °F 27% 29.78 in 10.0 mi SSW 5.8 mph - N/A   Clear
11:53 PM 66.9 °F 35.1 °F 31% 29.78 in 10.0 mi SSW 5.8 mph - N/A   Clear